Location: Kingsnorth
(51.1000°N, 0.8500°E)
Time: 07:27:10
(UTC+00:00)

Daily predictions for brighter satellites

Satellite Brightness Start Highest point End
(mag) Time Altitude Azimuth Time Altitude Azimuth Time Altitude Azimuth
Cosmos 1271 Rocket 2.9 20:55:45 10° N 20:59:45 68° ENE 21:03:42 10° SSE
NOSS 2-1 (E) 4.0 21:00:12 10° NW 21:04:35 88° SW 21:10:49 10° SE
SPOT 3 Rocket 3.8 21:01:08 10° S 21:06:19 76° WSW 21:11:34 10° NNW
RESURS DK-1 3.3 21:04:52 10° NNW 21:08:46 39° NE 21:12:40 10° ESE
ERS-1 Rocket 3.1 21:04:25 10° SSE 21:09:24 70° ENE 21:14:27 10° N
Lacrosse 4 Rocket 4.2 21:09:27 10° W 21:12:51 24° NW 21:16:12 10° NNE
CZ-2C R/B 4.2 21:11:47 10° NNE 21:16:11 43° E 21:20:29 10° S
Cosmos 2056 Rocket 3.7 21:12:02 10° SSW 21:17:26 89° WNW 21:22:55 10° NNE
Cosmos 1025 Rocket 3.4 21:13:38 10° SSW 21:17:53 68° WNW 21:22:11 10° N
Cosmos 1455 Rocket 4.2 21:14:17 10° NNW 21:18:23 40° W 21:22:26 10° SSW
Cosmos 2315 Rocket 4.3 21:14:11 10° SSW 21:20:31 76° W 21:26:50 10° N
Cosmos 1741 Rocket 4.4 21:15:24 10° NNW 21:20:40 59° ENE 21:25:51 10° SE
ARIANE 5 R/B 3.0 21:18:15 10° SSE 21:22:37 55° ENE 21:26:58 10° N
Cosmos 676 Rocket 4.5 21:18:32 10° NNW 21:23:46 59° WSW 21:28:57 10° S
Cosmos 1420 Rocket 4.0 21:20:03 10° SSW 21:25:18 87° ESE 21:30:38 10° NNE
Cosmos 2344 4.4 21:17:30 10° NW 21:25:50 67° NE 21:37:15 10° ESE
SL-8 R/B 3.8 21:22:34 10° W 21:27:20 63° S 21:32:06 10° ESE
Cosmos 1455 2.7 21:27:13 10° NNW 21:30:58 56° W 21:34:42 10° S
Cosmos 2074 Rocket 4.1 21:27:31 10° N 21:33:51 81° E 21:40:06 10° SSE
USA 32 4.4 21:34:53 10° SSW 21:40:04 65° W 21:45:17 10° N
Cosmos 1607 4.1 21:36:43 10° SW 21:42:58 81° NW 21:49:12 10° NE
SL-16 R/B 4.5 21:39:14 10° NNW 21:43:06 18° NNE 21:46:57 10° ENE
USA 267 3.6 21:38:49 10° ENE 21:45:00 43° SE 21:51:09 10° SSW
Cosmos 1536 Rocket 3.5 21:43:55 10° S 21:48:15 88° E 21:52:37 10° N
Cosmos 2228 3.0 21:44:14 10° N 21:48:30 77° E 21:52:05 14° SSE
Tiangong 3.4 21:49:15 10° SW 21:50:16 11° SSW 21:50:37 11° S
Cosmos 1850 Rocket 4.0 21:45:38 10° NNW 21:50:53 83° WSW 21:55:21 14° SSE
SPOT 5 3.5 21:46:56 10° S 21:51:10 43° W 21:55:20 10° NNW
Cosmos 1980 Rocket 3.1 21:45:44 10° NNW 21:51:11 42° NE 21:56:34 10° ESE
Nadezhda 1 Rocket 4.1 21:47:08 10° S 21:53:00 59° E 21:58:58 10° NNE
Cosmos 1606 Rocket 3.8 21:49:16 10° N 21:53:32 58° ENE 21:56:56 16° SSE
Cosmos 1697 Rocket 2.8 21:48:16 10° NNW 21:53:55 73° ENE 21:58:44 14° SE
Cosmos 1703 3.1 21:51:22 10° S 21:55:11 80° E 21:59:05 10° NNE
Cosmos 2154 Rocket 4.0 21:52:23 10° N 21:58:41 86° E 22:04:14 13° S
Cosmos 2084 Rocket 4.1 21:55:05 10° NW 21:58:49 46° NE 22:02:41 10° ESE
Cosmos 2084 3.8 21:56:18 10° WSW 22:00:06 60° NW 22:03:59 10° NE
Cosmos 1656 4.1 21:58:00 10° NW 22:03:18 53° WSW 22:07:55 14° S
USA 276 2.1 22:00:36 10° WSW 22:03:30 47° SSE 22:06:25 10° E
Cosmos 1328 4.2 22:04:04 17° SSE 22:06:57 48° E 22:10:50 10° NNE
Cosmos 1331 Rocket 4.2 22:04:06 11° S 22:08:59 53° ESE 22:14:09 10° NNE
X-37B 1.5 22:10:29 10° SW 22:12:49 23° S 22:12:57 23° S
Meteor 1-21 Rocket 4.2 22:10:01 11° S 22:15:24 81° E 22:21:06 10° NNE
Lacrosse 5 3.2 22:12:45 10° WNW 22:16:58 26° SW 22:20:08 15° S
Cosmos 1408 3.6 22:15:25 19° SE 22:17:02 28° E 22:20:03 10° NNE
Cosmos 1726 Rocket 3.5 22:14:01 10° N 22:18:21 79° E 22:21:23 19° SSE
SAR-Lupe-4 3.6 22:15:01 10° NNE 22:18:35 62° ESE 22:20:59 19° S
Cosmos 1452 Rocket 3.6 22:13:44 10° SSW 22:19:00 82° WNW 22:24:18 10° NNE
ATLAS 2AS CENTAUR R/B 3.9 22:14:05 10° NW 22:20:06 31° WSW 22:25:25 12° S
FALCON 9 DEB 3.6 22:17:18 10° W 22:20:32 59° N 22:23:47 10° E
USA 234 3.3 22:14:26 10° ESE 22:21:01 82° SSW 22:27:38 10° WNW
Terra 3.0 22:17:01 10° SSW 22:21:23 36° W 22:25:47 10° NNW
Cosmos 2322 Rocket 4.2 22:18:12 10° NNW 22:22:35 22° NE 22:26:58 10° E
Cosmos 1833 Rocket 2.7 22:18:04 10° SSW 22:23:38 67° ESE 22:29:13 10° NE
Cosmos 1867 4.0 22:20:51 10° NW 22:26:18 59° NE 22:31:18 12° ESE
Cosmos 2278 4.5 22:21:48 10° NNW 22:27:20 47° NE 22:32:24 12° SE
SL-8 Rocket 4.2 22:22:54 10° N 22:29:07 62° ENE 22:33:46 18° SSE
Cosmos 1110 Rocket 4.0 22:25:54 10° SSW 22:31:09 85° ESE 22:36:30 10° NNE
Cosmos 2360 4.4 22:26:19 10° NW 22:32:01 66° WSW 22:36:09 19° SSE
Cosmos 1900 4.5 22:27:51 10° NW 22:33:01 71° SW 22:36:32 20° SSE
SAR-Lupe-1 4.1 22:31:09 10° NNE 22:34:44 77° WNW 22:37:27 16° SSW
Cosmos 1302 Rocket 4.4 22:31:55 19° S 22:35:20 45° ESE 22:40:16 10° NE
ALOS 2 3.5 22:32:45 16° SE 22:35:48 38° ENE 22:39:53 10° N
Cosmos 2218 Rocket 4.3 22:34:49 10° N 22:41:12 65° ENE 22:45:53 19° SSE
Cosmos 2366 rocket 4.2 22:38:40 10° N 22:44:59 68° ENE 22:49:34 20° SSE
Cosmos 2082 Rocket 2.6 22:42:49 19° S 22:46:34 46° ESE 22:51:59 10° NE
RESURS DK-1 3.7 22:43:04 10° NW 22:46:39 29° WSW 22:48:58 17° SSW
H-2A R/B 4.4 22:45:22 10° NNE 22:49:13 34° E 22:51:09 22° SE
Cosmos 2341 Rocket 4.1 22:43:07 10° N 22:49:30 85° W 22:54:07 20° S
Cosmos 2058 Rocket 3.1 22:47:57 10° NNW 22:52:22 81° W 22:55:04 23° S
Spot 4 3.8 22:52:43 23° SSE 22:55:46 89° ENE 23:00:35 10° NNW
Cosmos 1892 Rocket 3.6 22:53:33 19° SSW 22:56:43 76° WNW 23:01:08 10° N
Cosmos 1825 2.7 22:58:50 27° SSE 23:00:27 44° E 23:04:02 10° NNE
Cosmos 2360 Rocket 4.1 22:57:34 10° NNW 23:02:18 26° NE 23:07:01 10° E
Cosmos 968 Rocket 3.6 22:59:00 10° NNW 23:04:09 65° WSW 23:07:22 23° S
Cosmos 192 4.3 23:00:40 18° SSW 23:04:21 83° ESE 23:09:17 10° NNE
ERS-2 3.7 23:01:55 10° NE 23:04:47 22° E 23:05:53 19° ESE
Cosmos-2242 4.1 23:01:48 10° N 23:05:43 35° ENE 23:08:16 18° SE
GP-B 3.6 23:03:57 10° N 23:08:18 55° W 23:11:19 19° SSW
SL-8 R/B 4.4 23:05:05 10° W 23:09:27 35° SSW 23:11:22 25° SSE
Cosmos 1959 Rocket 4.4 23:03:23 10° N 23:09:32 87° W 23:13:40 22° S
Cosmos 1626 Rocket 3.7 23:10:22 26° SSE 23:12:36 57° E 23:16:52 10° NNE
Cosmos 1869 3.2 23:11:22 10° N 23:15:16 89° E 23:17:08 29° S
Cosmos 1606 4.1 23:12:42 10° N 23:16:07 29° ENE 23:18:18 17° ESE
BREEZE-M DEB (TANK) 3.5 23:13:25 10° W 23:16:32 72° S 23:28:04 10° ESE
Meteor 1-27 4.2 23:11:31 10° NNW 23:17:07 82° W 23:20:39 23° S
ASTEX 1 4.3 23:13:25 10° N 23:18:10 44° WNW 23:22:15 14° SW
Cosmos 2181 Rocket 4.0 23:20:12 20° SSW 23:24:39 84° W 23:30:55 10° N
COSMOS 2406 3.4 23:19:53 11° SW 23:25:23 76° WNW 23:31:11 10° NNE
ADEOS Rocket 3.5 23:20:28 21° SSE 23:25:39 86° WSW 23:33:24 10° NNW
Cosmos 1633 3.1 23:25:15 30° SE 23:26:27 42° E 23:29:46 10° NNE
Cosmos 2369 4.3 23:21:22 10° NW 23:26:47 44° WSW 23:30:04 22° SSW
USA 267 3.3 23:21:49 10° ENE 23:28:23 82° NNW 23:34:56 10° WSW
SL-16 R/B 2.6 23:22:47 10° NNW 23:28:27 60° NE 23:33:07 15° SE
Okean 1-7 Rocket 3.6 23:27:28 25° SSW 23:30:01 84° W 23:34:33 10° N
Cosmos 1892 3.5 23:30:47 20° SW 23:33:03 44° WNW 23:36:42 10° N
Cosmos 1980 Rocket 2.9 23:29:52 10° NW 23:35:13 42° WSW 23:38:22 22° SSW
SJ 16-02 2.2 23:31:46 10° NNW 23:36:02 44° ENE 23:39:12 17° SE
Cosmos 1486 Rocket 4.0 23:31:17 10° NNW 23:36:31 74° WSW 23:39:34 25° SSE
Cosmos 1697 Rocket 4.3 23:33:06 10° NW 23:37:20 22° WSW 23:40:27 14° SW
Cosmos 2084 Rocket 4.3 23:34:39 10° WNW 23:38:06 30° SW 23:39:10 26° SSW
USA 276 1.8 23:36:04 10° W 23:39:04 72° S 23:42:04 10° E
Cosmos 1821 Rocket 4.0 23:35:30 10° N 23:41:50 85° E 23:45:54 23° SSE
Cosmos 2219 Rocket 4.3 23:38:02 10° NNW 23:42:40 25° NE 23:47:16 10° E
Cosmos 1340 Rocket 4.4 23:48:44 18° SE 23:50:25 24° E 23:53:36 10° NE
Cosmos 1992 Rocket 4.0 23:48:18 23° SSW 23:51:37 85° ESE 23:56:55 10° NNE
Cosmos 1408 4.5 23:49:23 12° WSW 23:51:44 22° WNW 23:54:30 10° NNW
Resurs 1-4 Rocket 4.5 23:56:12 10° ENE 23:57:49 11° E 23:59:26 10° E
